Terug naar catalogus

YAMAL 601

ActiefCommunicatieGEO
NORAD 44307·PAYLOAD·🇷🇺 Russia

Gelanceerd May 30, 2019 vanaf Baikonur Cosmodrome

Loading…

TLE

VersSource: Space-Track

Epoch: Sep 14, 2026, 14:02 UTC

1 44307U 19031A   26257.58480772  .00000112  00000-0  00000-0 0  9999
2 44307   0.0138 158.1322 0002399   8.6508  86.3115  1.00272080 26826

Volg YAMAL 601 in realtime met AllMySat

Download on the App Store